Location: Prescott
(34.5400°N, 112.4680°W)
Time: 13:09:11
(UTC-07:00)

Amateur Radio Satellites - All Passes

Search period start: 20 September 2017 12:39
Search period end: 21 September 2017 12:39
Location: Prescott, 34.5400°N, 112.4680°W

Satellite Date Start Highest point End Downlink Frequencies (MHz)
Time Altitude Azimuth
QB50P2 20 Sep 12:41:02 12:43:42 16° 266° (W) 12:46:24 145.880/145.840
YUBILEINY 20 Sep 12:41:20 12:50:05 88° 92° (E) 12:58:49 435.215
NO-84 20 Sep 12:52:12 12:55:39 29° 127° (SE) 12:58:53 435.350 FM
VELOX 1 20 Sep 13:00:22 13:04:45 68° 102° (ESE) 13:09:06 145.980
AO-7 20 Sep 13:03:40 13:06:38 12° 51° (NE) 13:09:36 .
BUGSAT 1 20 Sep 13:03:55 13:07:47 49° 260° (W) 13:11:42 437.445
M-CUBED/EXP-1 PRIME 20 Sep 13:21:39 13:23:48 13° 261° (W) 13:25:53 437.505
O/OREOS (USA 219) 20 Sep 13:24:34 13:29:04 55° 254° (WSW) 13:33:33 437.305
SPROUT 20 Sep 13:27:58 13:31:56 37° 287° (WNW) 13:35:53 437.525
Gurwin Techsat 1B 20 Sep 13:28:44 13:34:01 74° 75° (ENE) 13:39:20 435.225
SO-50 20 Sep 13:30:09 13:33:08 18° 110° (ESE) 13:36:08 436.795
50 SAT 20 Sep 13:31:26 13:34:38 48° 100° (E) 13:37:50 437.505
Oscar 19 20 Sep 14:13:57 14:18:12 26° 264° (W) 14:22:30 437.125/150
DX 1 20 Sep 14:20:59 14:25:14 56° 285° (WNW) 14:29:26 434.975-435.025
UKube-1 20 Sep 14:21:33 14:25:53 90° 249° (WSW) 14:30:10 .
NO-84 20 Sep 14:29:51 14:33:02 25° 319° (NW) 14:35:59 435.350 FM
RS-15 20 Sep 14:31:34 14:43:20 58° 55° (NE) 14:54:24 29.354- 29.394
PCSat 20 Sep 14:34:03 14:39:08 43° 110° (ESE) 14:44:14 145.827
YUBILEINY 20 Sep 14:43:04 14:47:57 16° 294° (WNW) 14:52:51 435.215
ITUPSAT 1 20 Sep 14:48:28 14:51:42 18° 94° (E) 14:54:55 437.325
AO-7 20 Sep 14:49:36 14:57:50 67° 69° (ENE) 15:06:03 .
MOZHAYETS 4 20 Sep 14:52:58 14:56:22 20° 95° (E) 14:59:45
SO-50 20 Sep 15:09:04 15:13:16 38° 304° (NW) 15:17:29 436.795
ITAMSAT 1 20 Sep 15:09:54 15:15:00 66° 74° (ENE) 15:20:08 435.822/435.867
Gurwin Techsat 1B 20 Sep 15:13:16 15:14:25 11° 269° (W) 15:15:35 435.225
BEESAT 20 Sep 15:26:26 15:31:05 48° 100° (E) 15:35:41 436.000
PCSat 20 Sep 16:18:22 16:22:39 23° 306° (NW) 16:26:58 145.827
ITUPSAT 1 20 Sep 16:25:08 16:29:37 39° 288° (WNW) 16:34:05 437.325
MOZHAYETS 4 20 Sep 16:29:24 16:33:32 33° 288° (WNW) 16:37:38
CUTE-I 20 Sep 16:36:54 16:38:28 11° 62° (ENE) 16:40:01 437.470
AO-7 20 Sep 16:44:49 16:51:02 23° 264° (W) 16:57:17 .
RS-15 20 Sep 16:44:53 16:55:06 37° 255° (WSW) 17:04:54 29.354- 29.394
CUBESAT XI-V 20 Sep 16:45:54 16:50:32 72° 100° (E) 16:55:08 437.345
DOVE 4 20 Sep 16:47:20 16:51:48 52° 75° (ENE) 16:56:02 437.250
ITAMSAT 1 20 Sep 16:53:03 16:54:51 12° 268° (W) 16:56:38 435.822/435.867
KAITUO 1B 20 Sep 17:05:09 17:07:01 13° 68° (ENE) 17:08:54 145.475/437.950
BEESAT 20 Sep 17:05:37 17:08:24 16° 294° (WNW) 17:11:11 436.000
KKS-1 20 Sep 17:14:18 17:18:36 47° 100° (E) 17:22:53 437.445
XW-2D 20 Sep 17:24:20 17:27:48 34° 73° (ENE) 17:31:18 145.860 - 145.880
XW-2B 20 Sep 17:36:19 17:40:00 46° 75° (ENE) 17:43:43 145.730 - 145.750
XW-2F 20 Sep 17:39:09 17:42:49 48° 75° (ENE) 17:46:32 145.980 - 146.000
STARS 20 Sep 17:48:31 17:52:44 45° 100° (E) 17:56:57 437.465
HO-68 20 Sep 17:50:22 17:56:15 29° 64° (ENE) 18:02:09 435.675
XW-2C 20 Sep 17:57:18 18:01:08 86° 260° (W) 18:05:00 145.795 - 145.815
LilacSat-2 20 Sep 18:05:27 18:09:16 61° 260° (W) 18:13:07 437.200
CUTE-I 20 Sep 18:12:27 18:17:46 80° 258° (WSW) 18:23:05 437.470
NUDT-PHONESAT 20 Sep 18:13:53 18:17:37 74° 259° (WSW) 18:21:23 437.300
DOVE 4 20 Sep 18:28:20 18:29:39 11° 267° (W) 18:30:57 437.250
SEEDS 20 Sep 18:30:34 18:33:54 23° 71° (ENE) 18:37:16 437.485
KAITUO 1B 20 Sep 18:37:14 18:40:40 33° 263° (W) 18:44:08 145.475/437.950
CUBEBUG 2 20 Sep 18:45:39 18:49:17 29° 72° (ENE) 18:53:01 437.445
CUTE 1.7 + AOD 2 20 Sep 18:50:53 18:55:08 70° 76° (ENE) 18:59:25 437.475
KKS-1 20 Sep 18:52:31 18:54:42 14° 294° (WNW) 18:56:52 437.445
Tancredo 1 20 Sep 18:58:24 19:00:01 15° 129° (SE) 19:01:39 437.200
BEESAT 3 20 Sep 18:58:32 19:00:18 13° 108° (ESE) 19:02:04 437.485
UWE-3 20 Sep 18:59:56 19:03:21 24° 70° (ENE) 19:06:53 435.000/436.395/437.385
XW-2D 20 Sep 19:00:17 19:02:03 13° 267° (W) 19:03:50 145.860 - 145.880
AAUSAT CUBESAT 2 20 Sep 19:03:35 19:06:55 23° 71° (ENE) 19:10:14 437.432
XW-2A 20 Sep 19:21:14 19:24:36 67° 76° (ENE) 19:27:59 145.665 - 145.685
STARS 20 Sep 19:26:23 19:28:39 14° 294° (WNW) 19:30:56 437.465
HO-68 20 Sep 19:36:47 19:43:36 48° 260° (W) 19:50:29 435.675
AO-73 20 Sep 19:53:37 19:57:43 48° 74° (ENE) 20:01:56 145.935
ZACube-1 20 Sep 19:54:19 19:58:29 57° 75° (ENE) 20:02:46 437.345
Oscar 11 20 Sep 19:56:49 20:00:48 36° 73° (ENE) 20:04:49 .
SEEDS 20 Sep 20:06:00 20:09:26 24° 264° (W) 20:12:54 437.485
STRAND 1 20 Sep 20:08:51 20:14:00 78° 285° (WNW) 20:19:08 437.568
nSIGHT-1 20 Sep 20:17:52 20:20:15 19° 129° (SE) 20:22:38 .
CUBEBUG 2 20 Sep 20:23:04 20:25:56 18° 266° (W) 20:28:51 437.445
JUGNU 20 Sep 20:24:25 20:28:09 17° 173° (S) 20:31:52 437.505
Tancredo 1 20 Sep 20:32:03 20:34:24 26° 323° (NW) 20:36:45 437.200
BEESAT 2 20 Sep 20:33:02 20:36:51 48° 115° (ESE) 20:40:45 435.950
BEESAT 3 20 Sep 20:33:37 20:37:25 43° 302° (WNW) 20:41:16 437.485
AO-85 20 Sep 20:35:14 20:39:03 56° 117° (ESE) 20:42:53 145.980
UWE-3 20 Sep 20:36:24 20:39:43 22° 265° (W) 20:43:08 435.000/436.395/437.385
AAUSAT CUBESAT 2 20 Sep 20:38:57 20:42:15 22° 264° (W) 20:45:32 437.432
EO-88 20 Sep 20:49:06 20:51:06 14° 69° (ENE) 20:53:08 145.990 - 145.960
DELFI C3 20 Sep 21:02:09 21:05:54 43° 74° (ENE) 21:09:39 145.870
FO-29 20 Sep 21:05:32 21:10:41 39° 99° (E) 21:16:21 435.910
NO-84 20 Sep 21:05:50 21:08:26 29° 42° (NE) 21:10:59 435.350 FM
ISS 20 Sep 21:07:22 21:10:37 70° 135° (SE) 21:13:53 437.550
UNISAT 6 20 Sep 21:08:51 21:10:29 12° 92° (E) 21:12:06 437.425
Max Valier Satellite 20 Sep 21:12:55 21:16:23 40° 74° (ENE) 21:19:54 145.860
TIGRISAT 20 Sep 21:31:52 21:35:20 20° 95° (E) 21:38:48 435.000
AO-73 20 Sep 21:32:48 21:34:12 11° 269° (W) 21:35:36 145.935
Oscar 11 20 Sep 21:34:25 21:37:01 16° 267° (W) 21:39:39 .
SRMSAT 20 Sep 21:45:03 21:46:41 11° 165° (SSE) 21:48:18 437.500
nSIGHT-1 20 Sep 21:53:30 21:56:24 30° 323° (NW) 21:59:20 .
LO-87 20 Sep 21:57:01 21:58:05 11° 68° (ENE) 21:59:08 145.935 - 145.965
JUGNU 20 Sep 22:12:30 22:16:27 18° 183° (S) 22:20:22 437.505
BEESAT 2 20 Sep 22:12:45 22:14:51 14° 311° (NW) 22:16:58 435.950
AO-85 20 Sep 22:18:40 22:19:46 11° 313° (NW) 22:20:54 145.980
EO-88 20 Sep 22:21:17 22:24:28 28° 263° (W) 22:27:41 145.990 - 145.960
DELFI C3 20 Sep 22:39:53 22:40:49 11° 268° (W) 22:41:45 145.870
UNISAT 6 20 Sep 22:42:52 22:47:26 57° 285° (WNW) 22:52:02 437.425
NO-84 20 Sep 22:44:30 22:45:29 11° 237° (WSW) 22:46:27 435.350 FM
ISS 20 Sep 22:45:39 22:47:25 14° 332° (NNW) 22:49:12 437.550
FO-29 20 Sep 22:51:18 22:55:36 24° 291° (WNW) 23:00:12 435.910
YUBILEINY 20 Sep 22:56:20 23:04:15 37° 75° (ENE) 23:12:08 435.215
PRISM 20 Sep 23:04:05 23:08:05 58° 285° (WNW) 23:12:03 437.425
TIGRISAT 20 Sep 23:07:49 23:12:00 33° 288° (WNW) 23:16:11 435.000
ESTCUBE 1 20 Sep 23:10:41 23:15:12 75° 77° (ENE) 23:19:44 437.505/2401.250
PCSat 20 Sep 23:26:13 23:29:52 18° 51° (NE) 23:33:30 145.827
AIST 2D 20 Sep 23:26:33 23:29:58 45° 99° (E) 23:33:19 435.315
LO-87 20 Sep 23:27:55 23:31:07 33° 262° (W) 23:34:21 145.935 - 145.965
SRMSAT 20 Sep 23:31:16 23:35:06 18° 174° (S) 23:38:56 437.500
NANOSAT C BR1 20 Sep 23:31:47 23:34:29 16° 94° (E) 23:37:11 145.865
SO-50 20 Sep 23:43:00 23:47:35 67° 60° (ENE) 23:52:12 436.795
VELOX 1 20 Sep 23:54:00 23:58:03 37° 73° (ENE) 00:02:07 145.980
DUCHIFAT 1 21 Sep 00:01:05 00:04:55 32° 98° (E) 00:08:43 145.980
JUGNU 21 Sep 00:02:15 00:04:43 13° 193° (SSW) 00:07:12 437.505
POLYITAN 1 21 Sep 00:09:42 00:13:55 55° 100° (E) 00:18:07 437.675
EO-79 21 Sep 00:14:54 00:19:08 64° 100° (E) 00:23:23 145.935-145.965
SPROUT 21 Sep 00:16:59 00:21:13 82° 258° (WSW) 00:25:28 437.525
QB50P2 21 Sep 00:27:20 00:31:37 80° 283° (WNW) 00:35:54 145.880/145.840
BUGSAT 1 21 Sep 00:48:57 00:52:37 28° 98° (E) 00:56:17 437.445
Oscar 19 21 Sep 00:50:46 00:53:31 14° 93° (E) 00:56:14 437.125/150
YUBILEINY 21 Sep 00:53:00 01:00:58 42° 272° (W) 01:08:58 435.215
M-CUBED/EXP-1 PRIME 21 Sep 01:01:23 01:04:36 51° 104° (ESE) 01:07:46 437.505
NANOSAT C BR1 21 Sep 01:06:24 01:10:13 33° 288° (WNW) 01:14:04 145.865
PCSat 21 Sep 01:08:19 01:13:38 59° 248° (WSW) 01:18:55 145.827
UKube-1 21 Sep 01:12:15 01:16:21 46° 73° (ENE) 01:20:29 .
DX 1 21 Sep 01:12:28 01:16:48 78° 75° (ENE) 01:21:09 434.975-435.025
SRMSAT 21 Sep 01:19:39 01:23:33 18° 185° (S) 01:27:28 437.500
SO-50 21 Sep 01:26:44 01:27:27 10° 253° (WSW) 01:28:10 436.795
50 SAT 21 Sep 01:29:59 01:33:02 34° 261° (W) 01:36:06 437.505
VELOX 1 21 Sep 01:31:57 01:34:36 16° 266° (W) 01:37:15 145.980
DUCHIFAT 1 21 Sep 01:37:27 01:40:17 18° 292° (WNW) 01:43:08 145.980
POLYITAN 1 21 Sep 01:47:58 01:49:10 11° 294° (WNW) 01:50:23 437.675
Gurwin Techsat 1B 21 Sep 01:48:46 01:53:43 38° 99° (E) 01:58:38 435.225
MOZHAYETS 4 21 Sep 01:52:36 01:54:48 13° 66° (ENE) 01:57:02
ITUPSAT 1 21 Sep 01:52:37 01:55:13 15° 65° (ENE) 01:57:50 437.325
O/OREOS (USA 219) 21 Sep 01:54:47 01:58:27 25° 102° (ESE) 02:02:09 437.305
BUGSAT 1 21 Sep 02:24:44 02:27:44 19° 291° (WNW) 02:30:45 437.445
Oscar 19 21 Sep 02:28:04 02:33:07 55° 287° (WNW) 02:38:06 437.125/150
BEESAT 21 Sep 02:29:20 02:33:41 37° 71° (ENE) 02:38:04 436.000
UKube-1 21 Sep 02:50:53 02:52:34 12° 267° (W) 02:54:14 .
Tancredo 1 21 Sep 02:54:30 02:57:03 36° 39° (NE) 02:59:36 437.200
AO-7 21 Sep 02:56:13 03:02:51 26° 97° (E) 03:09:26 .
SRMSAT 21 Sep 03:09:54 03:11:59 12° 194° (SSW) 03:14:05 437.500
ITAMSAT 1 21 Sep 03:26:37 03:31:13 31° 98° (E) 03:35:45 435.822/435.867
MOZHAYETS 4 21 Sep 03:26:59 03:31:27 51° 260° (W) 03:35:59
ITUPSAT 1 21 Sep 03:27:57 03:32:33 50° 259° (W) 03:37:13 437.325
Gurwin Techsat 1B 21 Sep 03:29:19 03:33:22 23° 293° (WNW) 03:37:25 435.225
O/OREOS (USA 219) 21 Sep 03:34:04 03:37:44 24° 297° (WNW) 03:41:27 437.305
ISS 21 Sep 03:38:31 03:40:57 19° 32° (NNE) 03:43:23 437.550
CUBESAT XI-V 21 Sep 03:45:20 03:49:49 46° 74° (ENE) 03:54:20 437.345
BEESAT 21 Sep 04:08:14 04:11:31 19° 265° (W) 04:14:50 436.000
KKS-1 21 Sep 04:09:05 04:12:51 28° 70° (ENE) 04:16:38 437.445
nSIGHT-1 21 Sep 04:23:06 04:26:19 53° 41° (NE) 04:29:29 .
Tancredo 1 21 Sep 04:30:41 04:31:19 11° 233° (SW) 04:31:57 437.200
STARS 21 Sep 04:41:56 04:45:31 26° 70° (ENE) 04:49:07 437.465
AO-7 21 Sep 04:47:51 04:55:55 60° 292° (WNW) 05:04:00 .
RS-15 21 Sep 04:48:47 05:00:22 53° 109° (ESE) 05:12:06 29.354- 29.394
DOVE 4 21 Sep 04:50:07 04:52:55 17° 95° (E) 04:55:47 437.250
BEESAT 3 21 Sep 04:53:31 04:57:06 32° 55° (NE) 05:00:38 437.485
BEESAT 2 21 Sep 04:55:42 04:57:03 11° 47° (NE) 04:58:24 435.950
ITAMSAT 1 21 Sep 05:06:11 05:10:30 27° 292° (WNW) 05:14:49 435.822/435.867
AO-85 21 Sep 05:09:16 05:12:42 21° 53° (NE) 05:16:18 145.980
ISS 21 Sep 05:14:26 05:17:33 39° 227° (SW) 05:20:38 437.550
CUBESAT XI-V 21 Sep 05:24:49 05:27:22 14° 267° (W) 05:29:56 437.345
XW-2C 21 Sep 05:35:03 05:36:43 12° 93° (E) 05:38:22 145.795 - 145.815
LilacSat-2 21 Sep 05:43:00 05:45:37 17° 95° (E) 05:48:13 437.200
KKS-1 21 Sep 05:46:01 05:49:21 21° 264° (W) 05:52:42 437.445
STRAND 1 21 Sep 05:46:37 05:47:43 11° 62° (ENE) 05:48:49 437.568
NUDT-PHONESAT 21 Sep 05:49:08 05:50:51 13° 93° (E) 05:52:36 437.300
nSIGHT-1 21 Sep 06:01:25 06:02:15 11° 234° (SW) 06:03:04 .
KAITUO 1B 21 Sep 06:11:41 06:14:55 27° 97° (E) 06:18:07 145.475/437.950
STARS 21 Sep 06:18:20 06:21:46 23° 264° (W) 06:25:12 437.465
DOVE 4 21 Sep 06:26:51 06:30:38 32° 287° (WNW) 06:34:31 437.250
BEESAT 2 21 Sep 06:31:11 06:35:11 62° 243° (WSW) 06:39:05 435.950
BEESAT 3 21 Sep 06:31:53 06:34:21 16° 251° (WSW) 06:36:48 437.485
CUTE-I 21 Sep 06:33:03 06:38:17 55° 101° (E) 06:43:30 437.470
XW-2D 21 Sep 06:33:46 06:37:36 85° 102° (ESE) 06:41:22 145.860 - 145.880
CUTE 1.7 + AOD 2 21 Sep 06:40:33 06:43:04 15° 93° (E) 06:45:34 437.475
AO-7 21 Sep 06:45:35 06:46:57 10° 311° (NW) 06:48:20 .
XW-2B 21 Sep 06:46:04 06:49:51 68° 283° (WNW) 06:53:35 145.730 - 145.750
XW-2F 21 Sep 06:48:23 06:52:09 66° 283° (WNW) 06:55:52 145.980 - 146.000
AO-85 21 Sep 06:48:55 06:53:10 39° 246° (WSW) 06:57:44 145.980
RS-15 21 Sep 07:01:26 07:13:01 46° 310° (NW) 07:24:43 29.354- 29.394
XW-2C 21 Sep 07:07:31 07:10:58 33° 287° (WNW) 07:14:24 145.795 - 145.815
HO-68 21 Sep 07:08:07 07:14:50 41° 99° (E) 07:21:31 435.675
LilacSat-2 21 Sep 07:16:41 07:19:50 24° 288° (WNW) 07:22:57 437.200
STRAND 1 21 Sep 07:21:05 07:26:10 79° 257° (WSW) 07:31:17 437.568
NUDT-PHONESAT 21 Sep 07:21:28 07:24:48 31° 287° (WNW) 07:28:05 437.300
KAITUO 1B 21 Sep 07:46:24 07:48:38 15° 291° (WNW) 07:50:51 145.475/437.950
AO-73 21 Sep 07:46:32 07:48:45 13° 92° (E) 07:50:56 145.935
ZACube-1 21 Sep 07:47:10 07:49:56 16° 93° (E) 07:52:40 437.345
SEEDS 21 Sep 07:52:12 07:56:22 71° 100° (E) 08:00:30 437.485
CUTE-I 21 Sep 08:14:36 08:17:49 16° 295° (WNW) 08:21:02 437.470
CUBEBUG 2 21 Sep 08:15:07 08:19:49 71° 284° (WNW) 08:24:33 437.445
CUTE 1.7 + AOD 2 21 Sep 08:15:07 08:18:58 34° 287° (WNW) 08:22:47 437.475
XW-2A 21 Sep 08:18:41 08:22:05 66° 284° (WNW) 08:25:28 145.665 - 145.685
AAUSAT CUBESAT 2 21 Sep 08:23:19 08:27:25 70° 101° (E) 08:31:29 437.432
UWE-3 21 Sep 08:27:52 08:32:33 90° 312° (NW) 08:37:14 435.000/436.395/437.385
TIGRISAT 21 Sep 08:29:27 08:30:31 11° 65° (ENE) 08:31:35 435.000
HO-68 21 Sep 08:56:05 09:02:20 34° 295° (WNW) 09:08:36 435.675
FO-29 21 Sep 08:58:48 09:04:51 88° 256° (WSW) 09:10:18 435.910
AO-73 21 Sep 09:20:46 09:25:11 47° 286° (WNW) 09:29:32 145.935
ZACube-1 21 Sep 09:22:01 09:26:20 41° 287° (WNW) 09:30:36 437.345
Oscar 11 21 Sep 09:23:01 09:27:20 64° 284° (WNW) 09:31:36 .
RS-15 21 Sep 09:23:08 09:29:58 16° 340° (NNW) 09:36:45 29.354- 29.394
UNISAT 6 21 Sep 09:37:51 09:42:08 80° 76° (ENE) 09:46:31 437.425
PRISM 21 Sep 09:49:19 09:53:20 56° 74° (ENE) 09:57:21 437.425
EO-88 21 Sep 09:53:04 09:56:14 27° 97° (E) 09:59:23 145.990 - 145.960
AIST 2D 21 Sep 10:00:14 10:00:30 10° 68° (ENE) 10:00:46 435.315
TIGRISAT 21 Sep 10:02:26 10:06:38 56° 260° (W) 10:10:56 435.000
DELFI C3 21 Sep 10:16:42 10:20:35 67° 284° (WNW) 10:24:27 145.870
Max Valier Satellite 21 Sep 10:19:30 10:23:15 83° 282° (WNW) 10:26:58 145.860
DUCHIFAT 1 21 Sep 10:50:28 10:52:55 15° 68° (ENE) 10:55:22 145.980
LO-87 21 Sep 10:58:12 11:01:01 21° 96° (E) 11:03:49 145.935 - 145.965
POLYITAN 1 21 Sep 10:59:04 11:02:31 25° 71° (ENE) 11:05:59 437.675
EO-79 21 Sep 11:03:57 11:07:33 29° 71° (ENE) 11:11:11 145.935-145.965
ESTCUBE 1 21 Sep 11:07:29 11:10:48 20° 95° (E) 11:14:06 437.505/2401.250
QB50P2 21 Sep 11:16:09 11:20:08 45° 74° (ENE) 11:24:11 145.880/145.840
EO-88 21 Sep 11:27:35 11:29:36 14° 291° (WNW) 11:31:37 145.990 - 145.960
AIST 2D 21 Sep 11:29:58 11:33:16 37° 262° (W) 11:36:36 435.315
BUGSAT 1 21 Sep 11:36:58 11:38:39 12° 67° (ENE) 11:40:20 437.445
M-CUBED/EXP-1 PRIME 21 Sep 11:42:51 11:47:00 41° 69° (ENE) 11:50:54 437.505
RS-15 21 Sep 11:43:29 11:50:05 16° 19° (NNE) 11:56:32 29.354- 29.394
YUBILEINY 21 Sep 11:52:33 12:00:45 48° 89° (E) 12:08:55 435.215
NANOSAT C BR1 21 Sep 11:54:06 11:58:15 75° 257° (WSW) 12:02:27 145.865
Oscar 19 21 Sep 12:04:20 12:07:26 16° 65° (ENE) 12:10:32 437.125/150
SPROUT 21 Sep 12:06:39 12:09:57 21° 96° (E) 12:13:15 437.525
O/OREOS (USA 219) 21 Sep 12:07:42 12:11:42 28° 64° (ENE) 12:15:41 437.305
NO-84 21 Sep 12:18:34 12:21:40 22° 126° (SE) 12:24:35 435.350 FM
DUCHIFAT 1 21 Sep 12:24:25 12:28:14 35° 262° (W) 12:32:06 145.980
LO-87 21 Sep 12:31:46 12:34:15 18° 289° (WNW) 12:36:44 145.935 - 145.965
